Flag for United Kingdom Weather past 2 weeks in Perth, Scotland, United Kingdom

Now
39 °F

Chilly.


Feels Like: 39 °F
Forecast: 42 / 55 °F
Wind: 2 mph from Northeast

Location: Strathallan


UV Index: 0 (Low)

Visibility: 6 mi


Pressure: 30.02 "Hg

Humidity: 93%

Dew point: 38 °F

Location of PerthLocation

Historic Weather in Perth

°F

Perth temperature yesterday

Maximum temperature yesterday: 57 °F (at 3:00 PM)
Minimum temperature yesterday: 44 °F (at 7:00 AM)
Average temperature yesterday: 49 °F

Past Weeks' High & Low Weather Summary

 TemperatureHumidityPressure
High61 °F (Apr 6, 1:00 PM)98% (Apr 7, 8:00 AM)30.42 "Hg (Apr 7, 8:00 AM)
Low29 °F (Apr 18, 6:00 AM)26% (Apr 18, 6:00 PM)29.41 "Hg (Apr 6, 1:00 PM)
Average48 °F73%29.98 "Hg
* Reported Apr 6 1:00 AM — Apr 21 1:00 AM, Perth, Weather by CustomWeather, © 2014

Note: Actual official high and low records may vary slightly from our data, if they occured in-between our weather recording intervals... More about our weather records

Advertising

Historic Weather Conditions — Data for Previous 24 hours

 ConditionsComfort  
Time TempWeatherWind HumidityBarometerVisibility
1:00 AM
Apr 21
42 °FQuite cool.2 mph90%30.03 "Hg16 mi
12:00 AM42 °FQuite cool.3 mph91%30.03 "Hg25 mi
11:00 PM
Apr 20
44 °FQuite cool.3 mph85%30.03 "Hg28 mi
10:00 PM46 °FCool.5 mph76%30.03 "Hg31 mi
9:00 PM49 °FCool.5 mph61%30.03 "Hg31 mi
8:00 PM52 °FCool.7 mph43%30.01 "Hg31 mi
7:00 PM54 °FCool.8 mph42%30.01 "Hg31 mi
6:00 PM55 °FRefreshingly cool.10 mph47%30.01 "Hg31 mi
5:00 PM56 °FRefreshingly cool.10 mph44%30.02 "Hg22 mi
4:00 PM57 °FRefreshingly cool.12 mph45%30.03 "Hg25 mi
3:00 PM57 °FRefreshingly cool.10 mph51%30.05 "Hg25 mi
2:00 PM56 °FRefreshingly cool.9 mph55%30.06 "Hg25 mi
1:00 PM54 °FCool.8 mph59%30.07 "Hg25 mi
12:00 PM51 °FCool.6 mph65%30.09 "Hg16 mi
11:00 AM48 °FCool.5 mph74%30.11 "Hg15 mi
10:00 AM45 °FQuite cool.8 mph80%30.12 "Hg12 mi
9:00 AM44 °FQuite cool.7 mph82%30.12 "Hg13 mi
8:00 AM44 °FQuite cool.6 mph84%30.12 "Hg9 mi
7:00 AM44 °FQuite cool.5 mph87%30.12 "Hg9 mi
6:00 AM44 °FQuite cool.5 mph84%30.12 "Hg15 mi
5:00 AM44 °FQuite cool.6 mph84%30.12 "Hg14 mi
4:00 AM44 °FSmoke.3 mph86%30.14 "Hg6 mi
3:00 AM45 °FCool.5 mph85%30.14 "Hg9 mi
2:00 AM45 °FCool.5 mph86%30.15 "Hg11 mi
Weather by CustomWeather, © 2014

See weather overview